Eden Prairie, MN

10:58 AM CST on February 19, 2017 (GMT -0600)
Flying Cloud

Weather History for KFCM - July, 2013

Change the Weather History Date:

Thursday, July 11, 2013

  Actual Average Record
Temperature  
Mean Temperature 74 °F -  
Max Temperature 86 °F 81 °F 91 °F (2005)
Min Temperature 62 °F 62 °F 57 °F (1999)
Cooling Degree Days 9    
Growing Degree Days 24 (Base 50)    
Moisture  
Dew Point 58 °F    
Average Humidity 61    
Maximum Humidity 94    
Minimum Humidity 34    
Precipitation  
Precipitation 0.00 in - - ()
Sea Level Pressure  
Sea Level Pressure 30.05 in    
Wind  
Wind Speed 4 mph (SSE)    
Max Wind Speed 15 mph    
Max Gust Speed 16 mph    
Visibility 7 miles    
Events      
Averages and records for this station are not official NWS values.
T = Trace of Precipitation, MM = Missing Value Source: NWS Daily Summary

Daily Weather History Graph

Daily Weather History Graph

Search for Another Location

Airport or City:

Trip Planner

Search our weather history database for the weather conditions in past years. The results will help you decide how hot, cold, wet, or windy it might be!

Date:

Astronomy

Jul. 11, 2013 Rise Set
Actual Time 5:38 AM CDT 8:59 PM CDT
Civil Twilight 5:02 AM CDT 9:35 PM CDT
Nautical Twilight 4:15 AM CDT 10:22 PM CDT
Astronomical Twilight 3:16 AM CDT 11:21 PM CDT
Moon 9:08 AM CDT (7/11) 10:28 PM CDT (7/11)
Length of Visible Light 16h 32m
Length of Day
15h 20m
Waxing Crescent, 11% of the Moon is Illuminated
Jul 11
Waxing Crescent
Jul 15
First Quarter
Jul 22
Full
Jul 29
Last Quarter
Aug 6
New

Hourly Weather History & Observations

Time (CDT) Temp. Heat Index Dew Point Humidity Pressure Visibility Wind Dir Wind Speed Gust Speed Precip Events Conditions
12:53 AM 66.9 °F - 59.0 °F 76% 30.05 in 7.0 mi NW 3.5 mph - N/A   Clear
1:53 AM 66.0 °F - 59.0 °F 78% 30.06 in 7.0 mi Calm Calm - N/A   Clear
2:53 AM 64.0 °F - 57.9 °F 80% 30.06 in 6.0 mi Calm Calm - N/A   Haze
3:53 AM 64.0 °F - 59.0 °F 84% 30.07 in 6.0 mi Calm Calm - N/A   Haze
4:53 AM 63.0 °F - 57.9 °F 84% 30.08 in 6.0 mi Calm Calm - N/A   Haze
5:53 AM 62.1 °F - 57.9 °F 86% 30.09 in 4.0 mi Calm Calm - N/A   Clear
6:38 AM 62.6 °F - 60.8 °F 94% 30.11 in 2.5 mi Calm Calm - N/A   Clear
6:53 AM 63.0 °F - 61.0 °F 93% 30.10 in 2.0 mi Calm Calm - N/A   Clear
7:14 AM 64.4 °F - 62.6 °F 94% 30.11 in 5.0 mi Calm Calm - N/A   Clear
7:53 AM 66.9 °F - 63.0 °F 87% 30.10 in 5.0 mi Calm Calm - N/A   Clear
8:53 AM 71.1 °F - 62.1 °F 73% 30.09 in 5.0 mi Calm Calm - N/A   Haze
9:53 AM 75.0 °F - 62.1 °F 64% 30.09 in 5.0 mi South 3.5 mph - N/A   Haze
10:53 AM 80.1 °F 80.2 °F 55.9 °F 43% 30.09 in 7.0 mi South 8.1 mph - N/A   Clear
11:53 AM 80.1 °F 80.2 °F 55.9 °F 43% 30.07 in 7.0 mi South 6.9 mph - N/A   Clear
12:53 PM 82.9 °F 82.4 °F 57.0 °F 41% 30.06 in 7.0 mi SSE 15.0 mph - N/A   Clear
1:53 PM 84.0 °F 83.0 °F 55.9 °F 38% 30.04 in 7.0 mi SSE 10.4 mph 16.1 mph N/A   Clear
2:53 PM 84.9 °F 83.6 °F 55.0 °F 36% 30.04 in 7.0 mi SSE 10.4 mph - N/A   Clear
3:53 PM 84.9 °F 83.3 °F 54.0 °F 34% 30.02 in 7.0 mi South 8.1 mph - N/A   Clear
4:53 PM 86.0 °F 84.5 °F 55.0 °F 35% 30.01 in 7.0 mi South 11.5 mph - N/A   Clear
5:53 PM 84.9 °F 83.6 °F 55.0 °F 36% 29.99 in 8.0 mi SSE 13.8 mph - N/A   Clear
6:53 PM 84.0 °F 82.5 °F 53.1 °F 34% 29.98 in 8.0 mi South 11.5 mph - N/A   Clear
7:53 PM 82.0 °F 81.3 °F 54.0 °F 38% 29.97 in 8.0 mi South 9.2 mph - N/A   Clear
8:53 PM 78.1 °F - 55.9 °F 46% 29.96 in 8.0 mi SSE 9.2 mph - N/A   Clear
9:53 PM 75.0 °F - 57.0 °F 53% 29.98 in 9.0 mi SSE 8.1 mph - N/A   Clear
10:53 PM 75.0 °F - 55.9 °F 51% 29.98 in 10.0 mi SSE 8.1 mph - N/A   Partly Cloudy
11:53 PM 73.9 °F - 55.9 °F 53% 29.98 in 10.0 mi South 10.4 mph - N/A   Clear